Location: Unspecified
(42.3650°N, 71.1030°W)
Time: 16:50:04
(UTC+00:00)

Tiros 1 - Pass Details

Date: 02 July 2024
Orbit: 624 x 656 km, 48.4° (Epoch: 13 July)

Event Time Altitude Azimuth Distance (km) Brightness Sun altitude
Rises 04:07:38 0° 286° (WNW) 2,902 10.9 -24.0°
Reaches altitude 10° 04:10:05 10° 295° (WNW) 1,996 10.1 -24.0°
Maximum altitude 04:14:23 39° 4° (N) 944 8.4 -24.2°
Drops below altitude 10° 04:18:42 10° 74° (ENE) 2,002 9.8 -24.3°
Sets 04:21:10 0° 82° (E) 2,913 10.5 -24.3°
